Regional Weather Roundup
Issued by NWS

Home | Current Version | Previous Version | Text Only | Print | Product List | Glossary Off
Versions: 1 2 3 4 5 6 7 8 9 10 11 12 13 14 15 16 17 18 19 20 21 22 23 24 25 26 27 28 29 30 31 32 33 34 35 36 37 38 39 40 41 42 43 44 45 46 47 48 49 50

000
ASUS43 KLOT 280307
RWRIL

ILLINOIS REGIONAL WEATHER ROUNDUP
NATIONAL WEATHER SERVICE CHICAGO/ROMEOVILLE IL
1000 PM CDT THU APR 27 2017

NOTE: "FAIR" INDICATES FEW OR NO CLOUDS BELOW 12,000 FEET WITH NO
SIGNIFICANT WEATHER AND/OR OBSTRUCTIONS TO VISIBILITY.

* THESE STATIONS ARE NOT UNDER NWS QUALITY CONTROL. THEY ALSO MAY NOT
  REPORT WEATHER SUCH AS PRECIPITATION OR FOG.

ILZ001-002-007-009-015-016-024-280400-
NORTHWEST ILLINOIS

CITY           SKY/WX    TMP DP  RH WIND       PRES   REMARKS
MOLINE         CLEAR     37  34  89 CALM      29.83R
STERLING*      CLEAR     40  38  93 CALM      29.84R
SAVANNA*       CLEAR     42  35  74 W7        29.83R
$$

ILZ003-004-008-010-011-017-018-280400-
NORTH CENTRAL ILLINOIS

CITY           SKY/WX    TMP DP  RH WIND       PRES   REMARKS
ROCKFORD       MOCLDY    42  35  76 SW8       29.84R
FREEPORT*      CLEAR     38  34  85 SW6       29.83R WCI  33
ROCHELLE*      CLEAR     39  37  94 S7        29.84R WCI  34
DE KALB*       CLEAR     40  36  84 SW8       29.84R
PERU*          CLOUDY    42  38  84 CALM      29.85R
$$

ILZ005-006-012>014-019>023-280400-
NORTHEAST ILLINOIS

CITY           SKY/WX    TMP DP  RH WIND       PRES   REMARKS
CHICAGO-OHARE  MOCLDY    44  34  67 SW9       29.82R
CHICAGO-MIDWAY MOCLDY    46  36  68 SW10      29.84R
AURORA         CLEAR     40  36  86 S7        29.84R
LANSING*       CLOUDY    46  40  80 SW8       29.86R
JOLIET*        CLEAR     44  40  86 CALM      29.86R
WAUKEGAN       CLOUDY    43  35  73 SW8G20    29.80R
DUPAGE AIRPORT CLEAR     40  37  89 SW8       29.82R
KANKAKEE*      CLOUDY    47  42  80 CALM      29.88R
WHEELING       CLOUDY    44  36  73 W12       29.83R
MORRIS*        PTCLDY    41  38  89 CALM      29.85R
ROMEOVILLE*    PTCLDY    42  39  89 SW7       29.85R
NORTHERLY ISL    N/A     46  35  65 W9          N/A
$$

LMZ740>746-280400-
SOUTHERN LAKE MICHIGAN

STATION/POSITION SKY/WX   TEMP    WIND        PRES    VSBY  WAVE
                          AIR SEA DIR/SP/G                  HT/PER
                          (F)     (DEG/KT/KT) (MB)    (MI)  (FT/S)
SOUTHERN BUOY              43 41  270/ 16/ 19 1008.5          3/ 5
HARRISON CRIB              47     250/ 13/ 18   N/A
BURNHAM HARBOR             46     240/  5/ 14   N/A
CALUMET HARBOR             46     230/  8/ 13 1010.0R
BURNS HARBOR               48     250/ 14/ 17 1011.2R
MICHIGAN CITY              47     240/ 22/ 24   N/A
MICHIGAN CITY 6N           46 47                N/A           3/ 4
ST. JOSEPH                 45 48  270/ 14/ 17 1011.0          3/ 4
$$

ILZ025>027-034>036-040-047-049-050-058-095>099-280400-
WEST-CENTRAL ILLINOIS

CITY           SKY/WX    TMP DP  RH WIND       PRES   REMARKS
QUINCY         CLOUDY    52  45  77 S6        29.85R
GALESBURG*     CLEAR     42  41  94 SE3       29.82R
MACOMB*        MOCLDY    46  43  90 S5        29.85R
JACKSONVILLE*  CLOUDY    50  45  83 CALM      29.86R
PITTSFIELD*    CLOUDY    50  47  90 CALM      29.87R
$$

ILZ028>032-037-038-041>044-048-051>054-059>061-280400-
CENTRAL ILLINOIS

CITY           SKY/WX    TMP DP  RH WIND       PRES   REMARKS
PONTIAC        CLOUDY    48  45  87 CALM      29.88R
BLOOMINGTON    CLOUDY    49  44  83 SW5       29.87R
DECATUR        MOCLDY    50  45  83 CALM      29.86S
PEORIA         CLOUDY    49  43  80 SE3       29.85R
LACON*         PTCLDY    42  41  95 CALM      29.84R
LINCOLN*       MOCLDY    51  47  86 CALM      29.86S
SPRINGFIELD    MOCLDY    54  45  71 CALM      29.85R
TAYLORVILLE    CLOUDY    49  45  87 SE3       29.85S
$$

ILZ033-039-045-046-055>057-062-063-280400-
EAST-CENTRAL ILLINOIS

CITY           SKY/WX    TMP DP  RH WIND       PRES   REMARKS
CHAMPAIGN      CLOUDY    50  44  80 SW3       29.87F
RANTOUL*       CLOUDY    51  46  83 S5        29.88S
MATTOON        PTCLDY    45  44  97 CALM      29.87R
PARIS*         CLOUDY    49  46  90 N3        29.90R
$$

ILZ079-100>102-280400-
SOUTHWEST ILLINOIS

CITY           SKY/WX    TMP DP  RH WIND       PRES   REMARKS
ALTON          CLOUDY    52  46  82 VRB5      29.85R
BELLEVILLE     MOCLDY    55  52  90 E5        29.85R
CAHOKIA*       CLOUDY    57  48  72 S6        29.86R
SPARTA*        CLOUDY    54  48  82 SE6       29.88R
$$

ILZ064>066-069>071-074>076-080>082-084>086-088>090-092>094-280400-
SOUTH-CENTRAL ILLINOIS

CITY           SKY/WX    TMP DP  RH WIND       PRES   REMARKS
CARBONDALE     CLEAR     52  50  93 SE5       29.87R
CAIRO*         CLOUDY    53  52  97 CALM      29.87R
EFFINGHAM*     CLOUDY    47  47 100 CALM      29.89R FOG
MARION         CLEAR     52  52 100 CALM      29.88S
MT. VERNON     PTCLDY    50  46  86 CALM      29.88R
CENTRALIA*     CLEAR     52  48  88 SE3       29.87R
SALEM*         PTCLDY    52  47  83 CALM      29.88R
METROPOLIS*    PTCLDY    51  50  97 CALM      29.88R
$$

ILZ067-068-072-073-078-083-087-091-280400-
SOUTHEAST ILLINOIS

CITY           SKY/WX    TMP DP  RH WIND       PRES   REMARKS
LAWRENCEVILLE  CLEAR     48  46  93 SE3       29.90R
FLORA*         PTCLDY    49  47  90 SE3       29.88R
FAIRFIELD*     PTCLDY    48  47  97 CALM      29.87R
HARRISBURG*    CLEAR     50  49  96 E3        29.88S
ROBINSON*      CLEAR     46  45  97 CALM      29.90R
CARMI*         PTCLDY    50  49  95 CALM      29.89R
$$

ABBREVIATIONS USED IN REMARKS
   TC - TEMPERATURE IN CELSIUS
  WCI - WIND CHILL INDEX
   HX - HEAT INDEX
  VSB - VISIBILITY
$$





USA.gov is the U.S. government's official web portal to all federal, state and local government web resources and services.